Weather reports worldwide

Advertisment
St-Sauveur, France (7300): temperature & dewpoint: 10.08.2018 13:00:00 - 16.08.2018 13:00:00 (CEST)St-Sauveur, France (7300): wind speed & gusts: 10.08.2018 13:00:00 - 16.08.2018 13:00:00 (CEST)St-Sauveur, France (7300): wind direction: 10.08.2018 13:00:00 - 16.08.2018 13:00:00 (CEST)St-Sauveur, France (7300): reduced air pressure: 10.08.2018 13:00:00 - 16.08.2018 13:00:00 (CEST)St-Sauveur, France (7300): visibility: 10.08.2018 13:00:00 - 16.08.2018 13:00:00 (CEST)St-Sauveur, France (7300): precipitation: 10.08.2018 13:00:00 - 16.08.2018 13:00:00 (CEST)
Date & Time tt [°C] td [°C] ff [km/h] ff [kn] fx [km/h] fx [kn] dd ppp [hPa] vv [km] rr [mm]
16.08.2018 13:00:00 21,6 15,4 21 11 35 19 NNW 1017,3 - 0,0
16.08.2018 12:00:00 20,8 16,0 22 12 34 18 N 1017,3 - 0,0
16.08.2018 11:00:00 20,0 16,2 16 9 37 20 N 1017,0 20 0,0
16.08.2018 10:00:00 18,7 16,1 22 12 40 22 N 1017,2 - 0,0
16.08.2018 09:00:00 17,7 16,4 19 10 32 17 N 1017,1 - 0,2
16.08.2018 08:00:00 16,8 16,3 16 9 29 16 N 1017,1 20 0,0
16.08.2018 07:00:00 16,8 16,5 13 7 21 12 NNW 1017,0 - 0,0
16.08.2018 06:00:00 16,8 16,3 12 6 19 10 N 1017,0 - 0,0
16.08.2018 05:00:00 16,8 16,3 12 6 23 13 N 1017,4 20 0,0
16.08.2018 04:00:00 17,0 16,4 16 8 22 12 N 1017,6 - 0,0
16.08.2018 03:00:00 17,1 16,3 18 10 27 14 N 1018,0 - 0,0
16.08.2018 02:00:00 17,3 16,5 19 11 31 17 N 1018,5 15 0,0
16.08.2018 01:00:00 17,5 16,4 22 12 34 18 N 1018,9 - 0,0
16.08.2018 00:00:00 17,9 16,6 18 10 28 15 N 1019,1 - 0,0
15.08.2018 23:00:00 18,0 15,8 16 9 27 15 NNW 1019,4 20 0,0
15.08.2018 22:00:00 18,3 16,1 14 8 24 13 N 1019,4 - 0,0
15.08.2018 21:00:00 19,2 16,1 14 7 28 15 N 1019,1 - 0,0
15.08.2018 20:00:00 21,0 16,4 12 7 23 13 N 1019,5 25 0,0
15.08.2018 19:00:00 21,9 16,6 14 8 23 13 N 1019,7 - 0,0
15.08.2018 18:00:00 22,6 17,1 13 7 22 12 N 1020,2 - 0,0
15.08.2018 17:00:00 22,8 17,7 12 7 23 13 N 1020,6 8 0,0
15.08.2018 16:00:00 23,0 18,1 11 6 19 10 N 1021,1 - 0,0
15.08.2018 15:00:00 23,2 18,3 9 5 18 10 SW 1021,7 - 0,0
15.08.2018 14:00:00 22,1 18,3 6 4 16 8 SSW 1022,0 10 0,0
15.08.2018 13:00:00 20,0 18,0 4 2 14 8 SSE 1022,3 - 0,0
15.08.2018 12:00:00 18,4 17,7 7 4 14 8 SE 1022,7 - 0,0
15.08.2018 11:00:00 18,4 17,9 6 3 11 6 ESE 1022,6 - 0,0
15.08.2018 10:00:00 18,5 18,3 5 3 10 5 N 1022,6 - 0,0
15.08.2018 09:00:00 18,0 17,8 3 2 15 8 NE 1022,4 - 0,2
15.08.2018 08:00:00 17,5 17,3 9 5 15 8 N 1022,1 0,1 0,0
15.08.2018 07:00:00 17,7 17,4 8 5 16 9 N 1021,8 - 0,0
15.08.2018 06:00:00 17,2 16,9 12 6 18 10 NNW 1021,8 - 0,0
15.08.2018 05:00:00 17,4 16,9 12 6 24 13 N 1022,1 20 0,0
15.08.2018 04:00:00 17,5 17,0 14 7 24 13 NNW 1022,3 - 0,0
15.08.2018 03:00:00 17,8 17,2 14 8 26 14 NNW 1022,5 - 0,2
15.08.2018 02:00:00 17,9 17,3 16 8 26 14 NW 1022,9 18 0,0
15.08.2018 01:00:00 18,1 17,5 14 8 24 13 NW 1022,8 - 0,0
15.08.2018 00:00:00 18,2 17,4 16 9 25 13 NW 1022,8 - 0,0
14.08.2018 23:00:00 18,6 17,6 14 8 27 15 NW 1022,8 20 0,0
14.08.2018 22:00:00 18,8 17,6 15 8 29 16 NW 1022,6 - 0,0
14.08.2018 21:00:00 19,6 17,7 15 8 31 17 NW 1022,1 - 0,0
14.08.2018 20:00:00 20,5 17,9 16 9 33 18 NW 1022,0 25 0,0
14.08.2018 19:00:00 21,5 17,5 19 10 37 20 WNW 1022,2 - 0,0
14.08.2018 18:00:00 22,0 16,7 19 11 38 20 NW 1022,1 - 0,0
14.08.2018 17:00:00 22,0 16,0 22 12 35 19 NW 1022,5 25 0,0
14.08.2018 16:00:00 22,0 14,6 18 10 30 16 NW 1022,4 - 0,0
14.08.2018 15:00:00 21,3 14,2 18 10 33 18 NNW 1022,5 - 0,0
14.08.2018 14:00:00 21,8 13,7 14 8 29 16 NNW 1022,1 25 0,0
14.08.2018 13:00:00 20,7 13,6 20 11 34 18 NNW 1021,9 - 0,0
14.08.2018 12:00:00 20,4 15,2 14 8 30 16 NNW 1021,6 - 0,0
14.08.2018 11:00:00 19,4 13,6 11 6 22 12 N 1021,3 25 0,0
14.08.2018 10:00:00 18,5 14,2 11 6 21 12 NNW 1021,0 - 0,0
14.08.2018 09:00:00 17,8 14,1 8 4 16 8 NNW 1020,5 - 0,0
14.08.2018 08:00:00 16,9 14,9 9 5 17 9 NNW 1020,0 25 0,0
14.08.2018 07:00:00 16,3 14,7 11 6 19 11 NNW 1019,2 - 0,0
14.08.2018 06:00:00 16,1 14,8 13 7 22 12 NNW 1018,7 - 0,0
14.08.2018 05:00:00 16,6 15,3 13 7 30 16 NNW 1018,3 20 0,0
14.08.2018 04:00:00 17,5 16,0 17 9 34 19 NNW 1018,2 - 0,0
14.08.2018 03:00:00 17,3 16,0 18 10 33 18 NNW 1017,7 - 0,0
14.08.2018 02:00:00 17,7 16,0 21 11 36 19 NW 1017,3 18 0,0
14.08.2018 01:00:00 18,1 16,4 19 11 36 19 NW 1016,8 - 0,0
14.08.2018 00:00:00 18,1 16,6 18 10 34 18 NW 1016,6 - 0,0
13.08.2018 23:00:00 18,1 16,3 18 10 33 18 NW 1016,3 25 0,0
13.08.2018 22:00:00 18,3 16,3 18 10 30 16 WNW 1015,4 - 0,0
13.08.2018 21:00:00 19,5 16,7 14 8 36 19 WNW 1014,9 - 0,0
13.08.2018 20:00:00 20,0 16,6 16 9 37 20 WNW 1014,2 25 0,0
13.08.2018 19:00:00 20,3 16,7 16 9 33 18 WNW 1014,0 - 0,0
13.08.2018 18:00:00 20,9 16,9 14 8 31 17 WNW 1013,9 - 0,0
13.08.2018 17:00:00 21,5 16,9 12 7 28 15 W 1013,6 - 0,0
13.08.2018 16:00:00 22,0 16,9 11 6 31 17 WNW 1013,6 - 0,0
13.08.2018 15:00:00 22,1 16,4 12 6 32 17 W 1013,5 - 0,0
13.08.2018 14:00:00 21,6 17,2 11 6 33 18 W 1013,2 25 0,0
13.08.2018 13:00:00 21,8 17,0 13 7 31 17 W 1013,0 - 0,0
13.08.2018 12:00:00 20,6 17,2 11 6 23 13 W 1012,9 - 0,0
13.08.2018 11:00:00 19,2 17,7 15 8 28 15 WNW 1012,6 - 0,2
13.08.2018 10:00:00 18,9 17,2 13 7 35 19 WNW 1012,3 - 0,0
13.08.2018 09:00:00 18,4 17,4 11 6 23 13 W 1011,9 - 0,0
13.08.2018 08:00:00 17,9 16,9 10 6 29 16 W 1011,4 15 1,0
13.08.2018 07:00:00 18,0 16,2 16 9 41 22 WNW 1011,1 - 0,0
13.08.2018 06:00:00 18,9 16,7 14 8 34 19 W 1011,2 - 0,0
13.08.2018 05:00:00 18,8 16,4 16 9 35 19 W 1011,0 - 0,0
13.08.2018 04:00:00 18,7 16,7 16 9 31 17 W 1011,0 - 0,0
13.08.2018 03:00:00 18,1 15,9 15 8 49 26 WSW 1011,4 - 0,2
13.08.2018 02:00:00 18,6 16,4 16 9 32 18 W 1011,7 25 0,0
13.08.2018 01:00:00 18,2 15,8 13 7 30 16 W 1011,5 - 0,0
13.08.2018 00:00:00 18,2 16,4 14 8 30 16 W 1011,6 - 0,0
12.08.2018 23:00:00 18,6 16,7 13 7 30 16 W 1011,9 - 0,0
12.08.2018 22:00:00 18,3 17,3 11 6 24 13 W 1011,7 - 0,0
12.08.2018 21:00:00 18,9 18,2 8 4 24 13 W 1011,0 - 0,0
12.08.2018 20:00:00 18,9 18,2 14 7 26 14 WNW 1010,8 18 0,0
12.08.2018 19:00:00 19,4 18,6 9 5 44 24 NW 1010,7 - 4,3
12.08.2018 18:00:00 22,7 18,9 26 14 38 21 SSW 1010,8 - 0,0
12.08.2018 17:00:00 23,5 18,6 26 14 36 20 SSW 1011,3 - 0,0
12.08.2018 16:00:00 24,3 18,7 19 10 34 18 SW 1012,3 - 0,0
12.08.2018 15:00:00 24,3 18,7 18 10 31 17 SW 1012,8 - 0,0
12.08.2018 14:00:00 22,4 18,0 16 9 29 16 SW 1013,3 25 0,0
12.08.2018 13:00:00 23,7 17,4 16 8 29 16 WSW 1013,5 - 0,0
12.08.2018 12:00:00 23,1 17,1 13 7 25 13 SW 1013,5 - 0,0
12.08.2018 11:00:00 21,8 17,6 11 6 18 10 S 1013,6 25 0,0
12.08.2018 10:00:00 20,2 16,8 11 6 19 11 SSE 1013,6 - 0,0
12.08.2018 09:00:00 18,1 15,5 5 3 10 6 SE 1014,1 - 0,0
12.08.2018 08:00:00 15,1 14,5 6 4 9 5 SE 1014,3 - 0,0
12.08.2018 07:00:00 14,2 13,1 7 4 9 5 E 1014,6 - 0,0
12.08.2018 06:00:00 14,0 13,0 5 3 10 5 ENE 1015,1 - 0,0
12.08.2018 05:00:00 14,6 14,1 8 5 9 5 NE 1015,7 25 0,0
12.08.2018 04:00:00 14,1 13,1 7 4 10 5 ENE 1016,6 - 0,0
12.08.2018 03:00:00 14,7 13,6 8 4 12 6 ENE 1017,4 - 0,0
12.08.2018 02:00:00 16,0 14,4 11 6 14 8 NNE 1018,0 - 0,0
12.08.2018 01:00:00 16,3 14,5 11 6 14 8 N 1018,9 - 0,0
12.08.2018 00:00:00 16,5 14,3 12 6 14 8 N 1019,5 - 0,0
11.08.2018 23:00:00 17,0 14,6 13 7 15 8 N 1020,0 25 0,0
11.08.2018 22:00:00 17,8 14,3 11 6 14 7 NNE 1020,2 - 0,0
11.08.2018 21:00:00 20,2 13,6 8 4 15 8 N 1020,5 - 0,0
11.08.2018 20:00:00 21,9 13,0 8 4 14 8 WNW 1021,0 25 0,0
11.08.2018 19:00:00 22,1 13,2 6 3 16 8 W 1021,6 - 0,0
11.08.2018 18:00:00 22,6 13,6 8 4 18 10 WSW 1022,2 - 0,0
11.08.2018 17:00:00 22,8 13,8 8 5 21 11 SW 1022,7 - 0,0
11.08.2018 16:00:00 22,9 14,5 11 6 22 12 SW 1023,5 - 0,0
11.08.2018 15:00:00 22,6 15,2 11 6 22 12 S 1024,2 - 0,0
11.08.2018 14:00:00 22,4 15,3 14 8 24 13 SSE 1024,6 25 0,0
11.08.2018 13:00:00 21,5 15,3 19 11 29 16 SSE 1025,0 - 0,0
11.08.2018 12:00:00 21,6 15,0 14 7 26 14 SSE 1025,1 - 0,0
11.08.2018 11:00:00 21,0 14,9 15 8 23 12 SE 1025,4 25 0,0
11.08.2018 10:00:00 20,4 15,2 11 6 23 12 SE 1025,5 - 0,0
11.08.2018 09:00:00 17,8 15,4 8 5 15 8 ESE 1025,4 - 0,0
11.08.2018 08:00:00 14,7 14,5 8 4 11 6 ESE 1025,5 18 0,0
11.08.2018 07:00:00 12,8 12,0 8 4 10 6 SE 1025,2 - 0,0
11.08.2018 06:00:00 12,8 11,9 8 4 10 5 E 1025,3 - 0,0
11.08.2018 05:00:00 13,0 12,1 7 4 9 5 E 1025,6 30 0,0
11.08.2018 04:00:00 13,2 12,1 4 2 7 4 NNW 1025,6 - 0,0
11.08.2018 03:00:00 13,5 12,1 7 4 9 5 NW 1025,8 - 0,0
11.08.2018 02:00:00 14,0 12,0 8 5 10 5 NNW 1026,1 25 0,0
11.08.2018 01:00:00 14,9 12,0 6 3 15 8 NNW 1026,2 - 0,0
11.08.2018 00:00:00 16,1 12,5 9 5 11 6 WNW 1026,0 - 0,0
10.08.2018 23:00:00 15,2 11,8 10 5 13 7 WNW 1026,1 25 0,0
10.08.2018 22:00:00 16,9 11,8 10 6 15 8 WNW 1025,7 - 0,0
10.08.2018 21:00:00 19,2 12,2 10 6 22 12 WNW 1025,4 - 0,0
10.08.2018 20:00:00 20,1 12,8 12 6 26 14 WNW 1025,3 30 0,0
10.08.2018 19:00:00 21,1 13,3 13 7 28 15 WNW 1025,3 - 0,0
10.08.2018 18:00:00 22,1 13,2 11 6 25 14 W 1025,2 - 0,0
10.08.2018 17:00:00 21,6 12,7 14 8 37 20 WNW 1025,3 30 0,0
10.08.2018 16:00:00 22,2 12,7 11 6 23 13 W 1025,5 - 0,0
10.08.2018 15:00:00 22,4 12,6 11 6 26 14 W 1025,6 - 0,0
10.08.2018 14:00:00 21,2 12,9 10 5 24 13 W 1025,7 30 0,0
10.08.2018 13:00:00 21,7 12,3 11 6 25 14 WSW 1025,6 - 0,0

tt = temperature
td = dewpoint
ff = wind speed
fx = gusts
dd = wind direction
ppp = reduced air pressure
vv = visibility
rr = precipitation

Next stations